Hourly Data Report for October 14, 2013

All times are specified in Local Standard Time (LST). Add 1 hour to adjust for Daylight Saving Time where and when it is observed.

SAINT JOHN A
NEW BRUNSWICK

45°18'58.000" N
65°53'24.000" W
108.80 m
8104901
71609
YSJ

Download Data

Hourly Data (October 2013)
Hourly Data Report for October 14, 2013
Temp Definition
°C
Dew Point Temp Definition
°C
Rel Hum Definition
%
Wind Dir Definition
10's deg

Wind Spd Definition
km/h
Visibility Definition
km
Stn Press Definition
kPa
Hmdx Definition


Wind Chill Definition


Weather Definition


TIME
00:00 Legend Double Dagger -0.7 -0.7 100 3 2 24.1 101.49   -1 Fog
01:00 Legend Double Dagger -0.9 -0.9 100 6 1 24.1 101.50   -1 Fog
02:00 Legend Double Dagger -0.6 -0.6 100 3 3 24.1 101.46   -2 Fog
03:00 Legend Double Dagger -1.4 -1.4 100 4 3 19.3 101.45   -2 Fog
04:00 Legend Double Dagger -1.1 -1.1 100 35 3 0.8 101.45   -2 Freezing Fog
05:00 Legend Double Dagger -0.3 -0.3 100 1 3 0.8 101.44   -1 Freezing Fog
06:00 Legend Double Dagger -0.8 -0.8 100 25 1 0.8 101.43   -1 Freezing Fog
07:00 Legend Double Dagger -1.3 -1.3 100 5 1 0.4 101.43   -2 Freezing Fog
08:00 Legend Double Dagger 1.8 1.8 100 17 1 9.7 101.45     Fog
09:00 Legend Double Dagger 8.5 8.2 98 22 3 24.1 101.43     LegendNANA
10:00 Legend Double Dagger 11.7 8.4 80 24 10 24.1 101.41     LegendNANA
11:00 Legend Double Dagger 13.4 7.5 67 24 13 24.1 101.38     Mostly Cloudy
12:00 Legend Double Dagger 14.4 7.7 64 22 21 24.1 101.29     LegendNANA
13:00 Legend Double Dagger 14.6 6.0 56 21 23 24.1 101.23     LegendNANA
14:00 Legend Double Dagger 14.0 5.9 58 22 27 24.1 101.20     Mostly Cloudy
15:00 Legend Double Dagger 13.1 7.8 70 21 28 24.1 101.17     LegendNANA
16:00 Legend Double Dagger 12.6 7.3 70 21 20 24.1 101.12     LegendNANA
17:00 Legend Double Dagger 11.0 7.3 78 21 14 24.1 101.11     Mostly Cloudy
18:00 Legend Double Dagger 9.7 7.7 87 21 13 24.1 101.13     LegendNANA
19:00 Legend Double Dagger 10.1 7.7 85 22 11 24.1 101.16     LegendNANA
20:00 Legend Double Dagger 10.6 8.0 84 21 13 24.1 101.13     Mostly Cloudy
21:00 Legend Double Dagger 10.3 8.7 90 22 12 24.1 101.14     Rain
22:00 Legend Double Dagger 10.2 9.6 96 23 10 24.1 101.16     Rain
23:00 Legend Double Dagger 10.2 9.8 97 23 9 24.1 101.10     Rain

Notes on Data Quality.

Legend

  • E = Estimated
  • M = Missing
  • NA = Not Available
  • ‡ = Partner data that is not subject to review by the National Climate Archives
Date modified: